Location: Invercargill
(46.4000°S, 168.3500°E)
Time: 00:01:33
(UTC+13:00)

Cosmos 2219 Rocket - Pass Details

Date: 24 January 2019
Orbit: 829 x 845 km, 71.0° (Epoch: 21 February)

Event Time Altitude Azimuth Distance (km) Brightness Sun altitude
Exits shadow 23:36:32 27° 44° (NE) 1,565 3.0 -17.0°
Maximum altitude 23:38:12 33° 75° (ENE) 1,412 3.0 -17.1°
Drops below altitude 10° 23:43:15 10° 137° (SE) 2,499 4.8 -17.6°
Sets 23:45:56 0° 146° (SE) 3,442 5.7 -17.9°
